Home > Time Zones > World Clock > Weather > U.S.A. > Hilo > Past weeks

Flag for U.S.A. Weather past 2 weeks in Hilo, Hawaii, U.S.A.

Now
79 °F

Partly cloudy.


Feels Like: 82 °F
Forecast: 73 / 82 °F
Wind: 6 mph from North

Location: Hilo International Airport

Current Time: Aug 28, 2014 at 7:38:38 PM

Latest Report: Aug 28, 2014 at 6:53 PM


Visibility: 10 mi

Pressure: 29.86 "Hg

Humidity: 74%

Dew point: 70 °F

Location of HiloLocation

Historic Weather in Hilo — Graph

°F

Hilo temperature yesterday

Maximum temperature yesterday: 85 °F (at 11:53 AM)
Minimum temperature yesterday: 72 °F (at 12:53 AM)
Average temperature yesterday: 78 °F

Past Weeks' High & Low Weather Summary

 TemperatureHumidityPressure
High85 °F (Aug 16, 11:53 AM)100% (Aug 20, 9:16 PM)30.06 "Hg (Aug 20, 9:16 PM)
Low67 °F (Aug 28, 4:53 AM)51% (Aug 16, 11:53 AM)29.84 "Hg (Aug 28, 3:53 PM)
Average77 °F80%29.97 "Hg
* Reported Aug 13 5:00 PM — Aug 28 5:53 PM, Hilo, Weather by CustomWeather, © 2014

Note: Actual official high and low records may vary slightly from our data, if they occured in-between our weather recording intervals... More about our weather records

Advertising

Hilo weather history for previous 24 hours

 ConditionsComfort  
Time TempWeatherWind HumidityBarometerVisibility
5:53 PM
Aug 28
82 °FBroken clouds.9 mph67%29.85 "Hg10 mi
4:53 PM83 °FPassing clouds.8 mph65%29.84 "Hg10 mi
3:53 PM84 °FScattered clouds.10 mph65%29.84 "Hg10 mi
2:53 PM85 °FPassing clouds.12 mph61%29.84 "Hg10 mi
1:53 PM85 °FScattered clouds.13 mph63%29.85 "Hg10 mi
12:53 PM84 °FScattered clouds.13 mph63%29.88 "Hg10 mi
11:53 AM84 °FScattered clouds.12 mph63%29.89 "Hg10 mi
10:53 AM83 °FScattered clouds.9 mph63%29.90 "Hg10 mi
9:53 AM83 °FPassing clouds.9 mph63%29.91 "Hg10 mi
8:53 AM81 °FPassing clouds.6 mph65%29.92 "Hg10 mi
7:53 AM76 °FPassing clouds.3 mph64%29.91 "Hg10 mi
6:53 AM70 °FSunny.6 mph68%29.90 "Hg10 mi
5:53 AM67 °FClear.7 mph73%29.88 "Hg10 mi
4:53 AM67 °FClear.7 mph76%29.88 "Hg10 mi
3:53 AM68 °FClear.8 mph78%29.88 "Hg10 mi
2:53 AM69 °FClear.6 mph81%29.88 "Hg10 mi
1:53 AM70 °FClear.5 mph84%29.89 "Hg10 mi
12:53 AM71 °FClear.5 mph87%29.90 "Hg10 mi
11:53 PM
Aug 27
73 °FPassing clouds.3 mph84%29.91 "Hg10 mi
10:53 PM75 °FPassing clouds.7 mph82%29.92 "Hg10 mi
9:53 PM77 °FPartly cloudy.7 mph74%29.92 "Hg10 mi
8:53 PM78 °FPassing clouds.5 mph69%29.91 "Hg10 mi
7:53 PM79 °FOvercast.6 mph72%29.90 "Hg10 mi
Weather by CustomWeather, © 2014

See weather overviewHow to use our weather pages